Flag for U.S.A. Weather past 2 weeks in Mobile, Alabama, U.S.A.

Now
55 °F

Clear.


Feels Like: 53 °F
Forecast: 50 / 73 °F
Wind: 7 mph from North

Location: Mobile Downtown Airport

Current Time: Oct 23, 2014 at 9:10:49 AM

Latest Report: Oct 23, 2014 at 7:53 AM


Visibility: 10 mi

Pressure: 30.11 "Hg

Humidity: 77%

Dew point: 48 °F

Location of MobileLocation

Historic Weather in Mobile — Graph

°F

Mobile temperature yesterday

Maximum temperature yesterday: 78 °F (at 1:53 PM)
Minimum temperature yesterday: 54 °F (at 12:53 AM)
Average temperature yesterday: 65 °F

Past Weeks' High & Low Weather Summary

 TemperatureHumidityPressure
High87 °F (Oct 8, 1:53 PM)100% (Oct 8, 7:53 AM)30.15 "Hg (Oct 8, 7:53 AM)
Low49 °F (Oct 20, 6:53 AM)29% (Oct 16, 2:53 PM)29.77 "Hg (Oct 14, 2:53 AM)
Average70 °F77%30.02 "Hg
* Reported Oct 8 7:53 AM — Oct 23 7:53 AM, Mobile, Weather by CustomWeather, © 2014

Note: Actual official high and low records may vary slightly from our data, if they occured in-between our weather recording intervals... More about our weather records

Advertising

Mobile weather history for previous 24 hours

 ConditionsComfort  
Time TempWeatherWind HumidityBarometerVisibility
7:53 AM
Oct 23
55 °FClear.7 mph77%30.11 "Hg10 mi
6:53 AM54 °FClear.10 mph80%30.10 "Hg10 mi
5:53 AM56 °FClear.12 mph77%30.09 "Hg10 mi
4:53 AM49 °FClear.6 mph90%30.09 "Hg10 mi
3:53 AM49 °FClear.6 mph90%30.08 "Hg10 mi
2:53 AM53 °FClear.6 mph83%30.08 "Hg10 mi
1:53 AM52 °FClear.7 mph83%30.08 "Hg10 mi
12:53 AM54 °FClear.7 mph83%30.09 "Hg10 mi
11:53 PM
Oct 22
61 °FClear.7 mph65%30.09 "Hg10 mi
10:53 PM64 °FClear.14 mph58%30.10 "Hg10 mi
9:53 PM65 °FClear.12 mph59%30.10 "Hg10 mi
8:53 PM66 °FClear.12 mph59%30.09 "Hg10 mi
7:53 PM67 °FClear.9 mph59%30.07 "Hg10 mi
6:53 PM70 °FSunny.7 mph51%30.06 "Hg10 mi
5:53 PM73 °FSunny.9 mph46%30.04 "Hg10 mi
4:53 PM76 °FSunny.9 mph42%30.03 "Hg10 mi
3:53 PM78 °FSunny.7 mph40%30.03 "Hg10 mi
2:53 PM78 °FSunny.10 mph43%30.03 "Hg10 mi
1:53 PM78 °FSunny.9 mph42%30.04 "Hg10 mi
12:53 PM76 °FSunny.7 mph45%30.08 "Hg10 mi
11:53 AM74 °FSunny.8 mph50%30.11 "Hg10 mi
10:53 AM71 °FSunny.8 mph59%30.12 "Hg10 mi
9:53 AM67 °FSunny.8 mph68%30.11 "Hg10 mi
Weather by CustomWeather, © 2014

See weather overviewHow to use our weather pages